Regional Weather Roundup
Issued by NWS

Home | Current Version | Previous Version | Text Only | Print | Product List | Glossary Off
Versions: 1 2 3 4 5 6 7 8 9 10 11 12 13 14 15 16 17 18 19 20 21 22 23 24 25 26 27 28 29 30 31 32 33 34 35 36 37 38 39 40 41 42 43 44 45 46 47 48 49 50

000
ASUS43 KFSD 251910
RWRSD

WEATHER ROUNDUP FOR SOUTH DAKOTA
NATIONAL WEATHER SERVICE SIOUX FALLS SD
200 PM CDT THU AUG 25 2016

NOTE: "FAIR" INDICATES FEW OR NO CLOUDS BELOW 12,000 FEET WITH NO
SIGNIFICANT WEATHER AND/OR OBSTRUCTIONS TO VISIBILITY.


SDZ001>005-009-010-012>017-252000-
NORTHWEST AND NORTH CENTRAL SOUTH DAKOTA

CITY           SKY/WX    TMP DP  RH WIND       PRES   REMARKS
BUFFALO          N/A     65  42  43 NW13      30.18F
FAITH            N/A     64  46  52 N15G24    30.22F
MOBRIDGE       CLOUDY    64  47  53 NW14      30.17S
$$

SDZ012>016-024>037-041>051-057-063-072>074-252000-
SOUTHWEST AND SOUTH CENTRAL SOUTH DAKOTA

CITY           SKY/WX    TMP DP  RH WIND       PRES   REMARKS
RAPID CTY ARPT PTSUNNY   63  42  46 CALM      30.27F
PIERRE         MOSUNNY   71  46  40 NW18G25   30.18F
CUSTER         CLOUDY    56  45  66 E9        30.30F
ELLSWORTH AFB  PTSUNNY   63  41  44 N9        30.26F
PHILIP         CLOUDY    69  44  40 NW14G22   30.22F
PINE RIDGE     CLOUDY    62  49  62 VRB3      30.28F
WINNER         FAIR      72  49  44 VRB6      30.21F
$$

SDZ004>011-016>023-039-040-252000-
NORTHEAST SOUTH DAKOTA

CITY           SKY/WX    TMP DP  RH WIND       PRES   REMARKS
ABERDEEN       CLOUDY    65  49  56 NW15      30.15R
WATERTOWN      PTSUNNY   67  52  58 W15       30.13F
BROOKINGS      SUNNY     67  53  61 NW14        N/A
SISSETON         N/A     66  51  58 NW16G25   30.10R
$$

SDZ017-020-022-023-036>040-048>070-252000-
SOUTHEAST SOUTH DAKOTA

CITY           SKY/WX    TMP DP  RH WIND       PRES   REMARKS
SIOUX FALLS    MOSUNNY   71  55  56 NW12G20   30.15F
HURON          MOSUNNY   72  49  44 W16G23    30.15F
CHAMBERLAIN    SUNNY     73  50  43 NW15G22   30.19F
MITCHELL       SUNNY     72  52  49 NW14      30.17F
YANKTON        SUNNY     72  52  49 W12       30.16S
$$

ABBREVIATIONS USED IN REMARKS
   TC - TEMPERATURE IN CELSIUS
  WCI - WIND CHILL INDEX
   HX - HEAT INDEX
  VSB - VISIBILITY





USA.gov is the U.S. government's official web portal to all federal, state and local government web resources and services.